SCP
0 0 0 0 0 0 0 0 0 0 0 0 0 0 0 0 0 0 0 0 0 0 0 0 0 0 0 0 0 0 0 0 0 0 0 0 0 0 0 0 0 0 0
0 0 0 0 0 0 0 0 0 0 0 0 0 0 0 0 0 0 0 0 0 0 0 0 0 0 0 0 0 0 0 0 0 0 0 0 0 0 0 0 0 0 0
0 0 0 0 0 0 0 0 0 0 0 0 0 0 0 0 0 0 0 0 0 0 0 0 0 0 0 0 0 0 0 0 0 0 0 0 0 0 0 0 0 0 0
0 0 0 1 1 1 0 0 0 0 0 0 0 0 0 0 0 0 0 0 0 0 0 0 0 0 0 0 0 0 0 0 0 0 0 0 0 0 0 0 0 0 0
1 1 1 1 1 1 0 0 0 0 0 0 0 0 0 0 0 0 0 0 0 0 0 0 0 0 0 0 0 0 0 0 0 0 0 -0 0 0 0 0 0 0 0
1 1 1 1 1 1 1 0 0 0 0 0 0 0 0 0 0 0 0 0 0 0 0 0 0 0 0 0 0 -0 -0 0 0 0 -0 -0 -0 0 0 0 0 0 0
1 1 1 1 1 1 1 0 0 0 0 0 0 0 0 0 0 0 0 0 0 0 0 0 0 -0 -0 -0 -0 -0 -0 0 0 0 -0 -0 -0 0 0 0 0 0 0
1 1 1 1 1 1 1 0 0 0 0 0 0 0 0 0 0 0 0 0 0 0 0 0 -0 -0 -0 -0 -0 -0 -0 0 0 0 -0 -0 0 0 0 0 0 0 0
1 1 1 1 1 1 1 0 0 0 0 0 0 0 0 0 0 0 0 0 0 0 0 -0 -0 -0 -0 -0 -0 -0 0 0 0 0 0 0 0 0 0 0 0 0 0
1 1 1 1 1 0 0 0 0 0 0 0 0 0 0 0 0 0 0 0 0 0 0 -0 -0 -0 -0 -0 -0 0 0 0 0 0 0 0 0 0 0 0 0 0 0
1 1 1 1 0 0 0 0 0 0 0 0 0 0 0 0 0 0 0 0 0 0 0 -0 -0 0 0 0 0 0 0 0 0 0 0 0 0 0 0 0 0 0 0
1 1 1 1 0 0 0 0 0 0 0 0 0 0 0 0 0 0 0 0 0 0 0 0 0 0 0 0 0 0 0 0 0 0 0 0 0 0 0 0 0 0 0
1 1 1 1 0 0 0 0 0 0 0 0 0 0 0 0 0 0 0 0 0 0 0 -0 -0 0 0 0 0 0 0 0 0 0 0 0 0 0 0 0 0 0 0
1 1 1 0 0 0 0 0 0 0 0 0 0 0 0 0 0 0 0 0 0 -0 -0 -0 -0 -0 0 0 0 0 0 0 0 0 0 0 0 0 0 0 0 0 0
1 1 1 0 0 0 0 0 0 0 0 0 0 0 0 0 0 0 0 0 -0 -0 -0 -0 -0 0 0 0 0 0 0 0 0 0 0 0 0 0 0 0 0 0 0
1 1 1 0 0 0 0 0 0 0 0 0 0 0 0 0 0 0 0 0 -0 -0 -0 -0 0 0 0 0 0 0 0 0 0 0 0 0 0 0 0 0 0 0 0
1 1 1 0 0 0 0 0 0 0 0 0 0 0 0 0 0 0 0 0 -0 -0 -0 -0 0 0 0 0 0 0 0 0 0 0 0 0 0 0 0 0 0 0 0
1 1 1 0 0 0 0 0 0 0 0 0 0 0 0 0 0 0 0 0 0 0 0 0 0 0 0 0 0 0 0 0 0 0 0 0 0 0 0 0 0 0 0
1 1 1 0 0 0 0 0 0 0 0 0 0 0 0 0 0 0 0 0 0 0 0 0 0 0 0 0 0 0 0 0 0 0 0 0 0 0 0 0 0 0 0
1 1 0 0 0 0 0 0 0 0 0 0 0 0 0 0 0 0 0 0 0 0 0 0 0 0 0 0 0 0 0 0 0 0 0 0 0 0 0 0 0 0 0
1 1 0 0 0 0 0 0 0 0 0 0 0 0 0 0 0 0 0 0 0 0 0 0 0 0 0 0 0 0 0 0 0 0 0 0 0 0 0 0 0 0 0
1 1 0 0 0 0 0 0 0 0 0 0 0 0 0 0 0 0 0 0 0 0 0 0 0 0 0 0 0 0 0 0 0 0 0 0 0 0 0 0 0 0 0
1 1 0 0 0 0 0 0 0 0 0 0 0 0 0 0 0 0 0 0 0 0 0 0 0 0 0 0 0 0 0 0 0 0 0 0 0 0 0 0 0 0 0
1 0 0 0 0 0 0 0 0 0 0 0 0 0 0 0 0 0 0 0 0 0 0 0 0 0 0 0 0 0 0 0 0 0 0 0 0 0 0 0 0 0 0
0 0 0 0 0 0 0 0 0 0 0 0 0 0 0 0 0 0 0 0 0 0 0 0 0 0 0 0 0 0 0 0 0 0 0 0 0 0 0 0 0 0 0
0 0 0 0 0 0 0 0 0 0 0 0 0 0 0 0 0 0 0 0 0 0 0 0 0 0 0 0 0 0 0 0 0 0 0 0 0 0 0 0 0 0 0
Wind_Speed
9 10 16 17 18 18 18 17 17 17 17 17 17 17 17 16 16 16 16 15 14 14 13 13 13 14 14 15 16 17 17 18 18 18 18 17 17 17 17 17 16 12 17
13 13 17 17 18 18 18 18 17 16 16 16 16 16 16 15 15 15 15 14 14 14 13 13 13 14 14 15 16 16 17 17 17 17 17 15 16 16 17 16 15 11 16
15 13 15 17 18 18 18 18 17 16 16 16 15 15 15 14 14 14 14 14 14 13 13 13 13 14 14 15 15 16 16 16 16 16 15 7 10 16 16 16 16 16 16
15 11 14 18 18 18 18 17 17 16 16 15 15 15 14 14 14 14 14 14 14 13 13 13 13 13 14 14 14 15 15 15 15 14 7 6 8 15 16 16 16 16 15
13 10 14 20 20 19 18 17 17 16 16 15 15 14 14 14 14 14 14 13 13 13 13 13 13 13 13 13 13 13 13 13 14 11 6 6 6 13 15 15 15 15 15
13 11 14 20 20 19 19 18 17 16 16 15 14 14 14 14 14 14 13 13 13 13 12 13 12 12 12 12 11 11 11 11 11 7 6 5 5 12 14 14 14 14 14
13 10 13 20 20 19 19 18 17 16 15 15 14 14 14 14 14 14 13 13 13 12 12 12 11 11 11 11 10 9 9 11 7 6 5 5 6 12 14 13 13 13 13
15 11 12 19 20 19 19 18 17 17 16 15 15 14 14 13 13 13 13 13 12 12 11 11 10 10 9 9 8 8 8 9 9 8 5 5 9 11 13 13 12 13 13
13 11 9 10 14 18 19 18 17 16 16 15 14 14 14 14 13 13 12 12 12 11 10 10 9 8 7 7 7 7 7 9 7 5 7 5 10 12 13 13 12 12 12
12 11 9 8 7 8 10 17 17 16 15 15 14 14 14 13 13 12 10 11 11 10 9 9 8 7 6 5 6 6 7 9 6 5 4 6 12 13 13 12 12 12 12
12 9 9 8 7 6 7 12 13 15 14 13 11 14 11 5 6 7 9 10 10 10 9 7 6 5 4 3 4 6 6 3 5 4 4 9 12 13 12 12 11 11 11
14 11 9 9 8 7 8 6 4 6 6 5 4 6 4 4 4 6 8 10 9 9 8 6 5 3 2 1 2 4 3 4 4 4 4 12 12 13 12 12 11 11 11
14 13 11 10 9 7 5 5 3 3 3 4 5 5 4 4 3 3 2 3 4 5 3 3 2 0 1 1 1 2 3 3 3 3 5 12 12 13 12 12 11 11 11
14 13 11 11 9 7 6 5 4 3 3 3 4 5 4 3 3 3 2 2 2 1 2 1 1 1 1 2 2 3 4 3 3 2 5 13 11 12 12 12 11 11 11
14 12 12 11 10 8 7 5 6 4 4 4 3 4 5 4 4 3 2 2 2 2 2 2 2 2 2 2 3 4 4 4 4 4 4 12 12 11 12 12 11 11 11
13 12 11 11 10 9 6 5 5 5 4 4 4 4 5 4 4 4 3 3 3 2 2 3 3 2 2 2 3 4 4 4 4 4 3 6 11 11 11 12 11 11 11
13 12 12 11 10 9 8 6 6 5 5 4 4 4 5 5 5 4 3 3 2 2 3 2 2 2 2 2 3 3 4 4 5 5 4 3 4 9 11 11 11 11 11
13 11 12 12 10 9 7 5 4 4 5 4 4 3 5 5 6 5 4 3 2 2 2 2 2 2 1 2 2 2 3 3 5 5 4 4 3 4 7 10 10 10 11
13 13 11 11 10 8 7 5 4 4 4 4 3 3 4 5 5 5 3 2 3 3 2 3 2 2 2 1 2 2 2 3 4 5 5 5 4 4 3 7 10 10 11
12 12 12 10 9 8 6 4 4 4 3 3 3 4 5 4 5 5 3 3 3 3 2 2 3 2 2 2 1 1 1 1 2 3 5 4 4 5 5 5 4 6 11
11 11 11 10 9 8 6 5 5 4 3 3 3 4 5 5 5 5 4 3 3 3 3 3 3 2 1 1 3 2 3 1 1 2 2 3 4 5 5 5 4 3 4
11 11 10 10 9 8 6 5 4 4 4 3 3 3 5 5 5 5 5 3 3 3 3 3 3 2 1 1 3 3 2 3 3 1 2 3 4 3 5 6 5 5 4
12 12 10 10 9 8 7 5 5 4 3 2 2 2 3 5 5 5 5 4 4 3 3 3 3 4 2 1 1 4 3 3 2 3 1 2 3 3 4 4 6 6 6
11 10 9 10 9 8 8 8 8 6 5 5 4 3 3 4 5 5 5 5 4 3 3 3 3 3 4 1 0 0 2 4 3 1 3 2 2 4 4 4 5 6 6
9 9 8 8 9 8 8 9 8 6 4 4 4 5 4 3 4 5 6 5 5 3 4 3 3 3 3 3 1 1 1 1 2 3 1 2 2 3 3 4 4 4 6
8 8 8 8 8 8 8 8 8 8 7 7 6 6 4 3 3 5 5 5 5 4 4 4 4 4 3 3 2 2 2 1 1 2 2 2 3 3 3 3 4 5 5
Wind_Direction
148 152 149 143 138 133 129 124 120 117 114 111 109 108 108 108 109 110 110 111 111 111 110 108 107 107 109 111 112 113 114 115 115 114 114 113 113 110 107 106 104 102 105
146 151 148 144 140 137 133 129 126 123 120 117 115 114 112 112 112 113 112 112 112 113 112 112 111 110 111 112 113 115 116 116 115 113 112 113 115 113 111 109 108 110 110
141 147 146 144 141 139 136 133 131 128 125 123 121 119 117 116 116 116 116 116 115 115 115 115 115 114 114 115 117 118 118 116 113 109 105 99 109 112 112 112 111 110 111
140 143 145 143 141 139 137 136 135 132 130 128 127 125 123 121 120 119 118 118 119 118 118 118 118 117 116 118 119 121 122 121 117 113 103 100 109 114 114 114 113 113 112
138 141 147 144 143 141 139 139 138 135 134 133 131 129 128 125 122 121 121 120 119 119 120 120 120 119 119 119 121 124 125 124 120 112 102 95 103 119 118 116 115 115 115
137 141 148 145 144 142 141 141 140 139 138 136 133 132 131 129 126 124 122 120 119 120 121 121 121 122 122 122 124 127 129 128 114 111 110 110 114 123 122 120 119 119 117
138 140 146 145 144 144 143 143 142 142 140 139 137 135 133 131 128 126 125 124 123 123 123 123 123 125 125 126 127 128 130 128 115 118 118 115 122 126 126 124 123 122 121
140 140 144 146 146 147 147 146 145 143 142 141 141 139 137 135 132 130 129 127 126 126 125 124 125 126 125 123 123 125 128 133 129 131 124 123 131 130 130 130 129 127 125
139 139 142 146 148 149 148 147 146 146 145 145 144 141 139 138 136 135 132 131 132 132 131 130 130 130 125 121 122 123 123 127 128 133 137 133 137 137 136 136 136 134 132
139 142 143 140 141 143 146 148 149 148 148 148 146 144 143 143 141 140 137 139 139 140 139 138 137 136 128 122 123 122 118 124 135 134 130 146 145 144 143 142 141 140 139
146 150 146 141 140 138 144 153 151 151 152 151 150 151 143 134 136 140 147 149 147 147 148 147 148 145 136 125 121 117 113 121 135 133 144 154 152 150 148 148 148 147 146
158 158 152 150 150 151 157 145 145 148 149 142 146 141 133 139 151 153 164 158 155 153 155 160 169 166 134 90 95 106 109 125 132 145 160 159 156 155 154 154 154 154 152
159 158 158 157 158 161 148 147 144 137 138 141 152 149 148 144 144 138 144 153 154 156 148 166 179 190 167 167 143 134 135 136 139 153 164 163 161 161 160 160 161 161 160
161 161 160 159 159 158 148 155 151 151 151 158 171 164 149 143 144 148 148 153 158 160 165 163 186 214 220 192 159 148 143 138 142 147 170 168 167 167 167 167 168 168 168
162 163 163 160 160 157 154 164 161 165 166 167 168 165 157 153 156 159 164 169 179 170 170 171 180 178 178 155 148 143 142 151 155 160 171 175 173 173 174 174 174 174 175
163 161 160 161 159 155 161 167 162 165 165 160 159 163 158 155 155 156 157 165 178 176 170 164 168 158 158 140 143 143 150 157 160 165 170 181 181 180 181 181 181 181 181
162 159 158 161 159 161 166 171 164 164 161 155 158 160 158 155 155 153 154 163 170 165 155 135 131 113 129 124 131 146 154 160 166 173 171 174 184 189 188 188 189 190 190
157 159 163 165 163 164 164 160 155 156 154 153 151 156 156 153 149 145 148 158 157 143 136 130 121 109 98 115 132 155 155 161 170 178 177 179 182 192 200 199 196 197 201
160 161 165 161 163 161 156 146 141 139 147 151 147 155 152 148 145 141 143 148 139 128 133 144 118 126 125 133 150 150 162 168 177 180 184 191 193 194 197 208 204 202 209
160 161 160 158 159 152 145 137 128 124 137 140 149 157 148 143 143 136 136 131 124 119 119 117 117 109 127 155 145 114 169 181 178 185 194 195 198 201 200 204 203 213 218
157 159 161 160 158 155 154 150 145 146 149 153 165 157 150 143 140 138 132 128 129 130 140 133 117 106 95 109 83 36 0 355 225 211 195 195 204 204 196 199 198 203 221
165 166 165 164 163 162 159 153 151 147 152 158 155 154 157 149 148 145 138 141 137 126 123 122 119 114 74 111 122 102 23 345 325 260 202 201 203 199 203 207 202 205 212
169 172 172 168 164 162 154 140 132 112 101 122 153 171 174 158 151 142 147 143 142 141 147 145 132 130 129 43 139 142 148 211 287 318 272 212 192 193 206 205 208 211 211
177 173 169 167 165 164 156 153 154 156 162 179 176 173 172 164 154 150 147 142 141 142 148 157 143 137 132 117 2 180 167 160 154 279 318 299 229 206 204 207 210 209 206
176 173 169 165 167 167 163 165 165 164 166 161 159 159 166 168 160 154 149 144 142 145 153 147 133 130 130 140 145 128 78 80 122 145 237 292 304 260 227 217 208 205 204
173 170 167 167 170 169 166 168 170 168 164 161 166 169 172 170 165 162 154 149 147 151 158 155 144 139 135 131 133 131 137 141 183 163 193 234 253 268 250 232 219 212 208